Location: Gwatt
(46.7204°N, 7.6223°E)
Time: 12:03:08
(UTC+00:00)

Transit 2A - Pass Details

Date: 15 May 2021
Orbit: 601 x 958 km, 66.7° (Epoch: 15 June)

Event Time Altitude Azimuth Distance (km) Brightness Sun altitude
Exits shadow 00:33:26 59° 133° (SE) 715 5.6 -22.7°
Maximum altitude 00:33:38 59° 119° (ESE) 709 5.7 -22.6°
Drops below altitude 10° 00:37:55 10° 40° (NE) 1,954 9.1 -22.4°
Sets 00:40:10 0° 37° (NE) 2,859 10.2 -22.3°
